[[{"header":{"parameterUnit":"m.s-1","parameterCategory":1,"la1":30.2991,"la2":30.254,"lo1":-89.0895,"lo2":-89.0444,"dy":0.0017,"dx":0.0017,"nx":28,"ny":28,"refTime":"2025-08-28T03:00:00:Z","depth":0,"parameterNumber":2,"parameterNumberName":"U-component_of_WINDS"},"data":[0,0,0,0,0,0,0,0,0,0,0,0,0,0,0,0,0,0,0,0,0,0,0,0,0,0,0,0,0,0,0,0,0,0,0,0,0,0,0,0,0,0,0,0,0,0,0,0,0,0,0,0,0,0,0,0,0,0,-2.164,-2.1642,0,-2.1874,-2.1877,-2.188,-2.1999,-2.1999,-2.2,-2.2,-2.2236,-2.2242,-2.2248,0,0,0,0,0,0,0,0,0,0,0,0,0,-2.1291,-2.1297,-2.164,-2.1643,-2.1645,-2.1874,-2.1877,-2.188,-2.1999,-2.1999,-2.2,-2.2,-2.2234,-2.2241,-2.2249,0,0,0,0,0,0,0,0,0,0,0,0,0,-2.1476,-2.1299,-2.1639,-2.1732,-2.1743,-2.1873,-2.1877,-2.1881,-2.1999,-2.1999,-2.2,-2.2,-2.2231,-2.224,-2.225,-2.2303,0,0,-2.2278,-2.2282,0,0,0,0,0,0,0,0,-2.1465,-2.1488,-2.1716,-2.1726,-2.1739,-2.1908,-2.1841,-2.2023,-2.1999,-2.1902,-2.2,-2.2,-2.2126,-2.2144,-2.2188,-2.2314,-2.2325,-2.2279,-2.2284,-2.2288,-2.2291,0,0,0,0,0,0,0,-2.1452,-2.1479,-2.1732,-2.1719,-2.1733,-2.1762,-2.1788,-2.1876,-2.201,-2.191,-2.192,-2.1946,-2.2133,-2.2178,-2.2194,-2.2328,-2.2278,-2.2287,-2.2292,-2.2296,-2.2511,-2.2512,0,0,0,0,0,0,-2.1425,-2.1467,-2.1725,-2.1739,-2.16,-2.1768,-2.1797,-2.1853,-2.201,-2.2034,-2.1946,-2.1951,-2.2163,-2.2183,-2.2203,-2.2277,-2.2288,-2.2297,-2.2302,-2.2511,-2.2511,-2.2512,0,0,0,0,0,0,-2.1417,-2.1447,-2.1716,-2.1606,-2.1643,-2.1774,-2.1835,-2.1858,-2.1904,-2.2036,-2.206,-2.1968,-2.2164,-2.219,-2.2278,-2.2287,-2.2301,-2.231,-2.2511,-2.2511,-2.2511,-2.2425,0,0,0,0,0,0,-2.1406,-2.1443,-2.1466,-2.1606,-2.1648,-2.1787,-2.1836,-2.1862,-2.192,-2.1929,-2.2064,-2.2086,-2.2166,-2.2263,-2.2287,-2.23,-2.2317,-2.2511,-2.2511,-2.2511,-2.2427,-2.2422,-2.2417,0,0,0,0,0,-2.1393,-2.1431,-2.1466,-2.1496,-2.1679,-2.1788,-2.1812,-2.1904,-2.192,-2.1944,-2.2029,-2.2082,-2.2282,-2.2271,-2.2299,-2.2315,-2.2511,-2.2511,-2.2511,-2.243,-2.2423,-2.2418,0,0,0,0,0,0,-2.1287,-2.1451,-2.1492,-2.1576,-2.1667,-2.1808,-2.184,-2.1893,-2.1981,-2.1985,-2.2094,-2.2123,-2.2202,-2.2267,-2.2253,-2.2375,-2.2402,-2.2407,-2.233,-2.2325,-2.232,-2.2303,-2.2324,0,0,0,0,0,-2.1273,-2.1349,-2.1488,-2.1548,-2.1592,-2.1708,-2.1758,-2.1822,-2.192,-2.1959,-2.205,-2.2142,-2.2226,-2.2279,-2.2363,-2.2437,-2.2469,-2.2462,-2.2457,-2.2452,-2.2456,-2.25,-2.2499,-2.2513,-2.2513,-2.2513,0,0,-2.1245,-2.1344,-2.1385,-2.1529,-2.1608,-2.1683,-2.1739,-2.1816,-2.1873,-2.197,-2.206,-2.2129,-2.224,-2.2321,-2.2361,-2.2378,-2.2459,-2.2452,-2.2447,-2.2454,-2.25,-2.2499,-2.2498,-2.2513,-2.2513,-2.2513,0,0,-2.1234,-2.1316,-2.1376,-2.1454,-2.1572,-2.1649,-2.1663,-2.1796,-2.1847,-2.1938,-2.2013,-2.2081,-2.2223,-2.2299,-2.2356,-2.2373,-2.2425,-2.2397,-2.2371,-2.2413,-2.2412,-2.2412,-2.2418,-2.2419,-2.2401,-2.24,-2.24,0,-2.1184,-2.1302,-2.14,-2.1473,-2.1534,-2.1627,-2.1688,-2.1758,-2.1897,-2.1936,-2.1953,-2.2134,-2.2215,-2.2315,-2.232,-2.2363,-2.2382,-2.2383,-2.2405,-2.2405,-2.2406,-2.2414,-2.2416,-2.2396,-2.2397,-2.2397,-2.2398,0,-2.1235,-2.1315,-2.1349,-2.1483,-2.1548,-2.1614,-2.1722,-2.1775,-2.1832,-2.1907,-2.1999,-2.2099,-2.2206,-2.2234,-2.229,-2.2343,-2.235,-2.2384,-2.2413,-2.2399,-2.2408,-2.2412,-2.239,-2.2392,-2.2393,-2.2394,0,0,-2.1162,-2.135,-2.1361,-2.1423,-2.156,-2.1624,-2.1694,-2.18,-2.1844,-2.1936,-2.1998,-2.2116,-2.2149,-2.2214,-2.2279,-2.2316,-2.2324,-2.2346,-2.235,-2.2339,-2.2389,-2.2362,-2.2364,-2.2359,-2.236,-2.2361,-2.238,0,-2.117,-2.1303,-2.1394,-2.149,-2.1566,-2.1655,-2.1716,-2.1806,-2.1878,-2.1951,-2.203,-2.2113,-2.215,-2.2189,-2.223,-2.2314,-2.2335,-2.2314,-2.2417,-2.242,-2.2387,-2.2369,-2.2341,-2.2354,-2.2384,-2.2384,-2.2385,0,-2.1198,-2.1289,-2.1393,-2.1523,-2.1558,-2.1612,-2.1717,-2.1786,-2.189,-2.1939,-2.2011,-2.2079,-2.2156,-2.2177,-2.2285,-2.2269,-2.2316,-2.2364,-2.2367,-2.238,-2.2402,-2.2382,-2.2361,-2.2363,-2.2391,-2.2391,-2.239,0,-2.1135,-2.1284,-2.1366,-2.1416,-2.1569,-2.1605,-2.1671,-2.1775,-2.1833,-2.1924,-2.1962,-2.206,-2.2114,-2.2187,-2.2279,-2.2286,-2.2378,-2.2406,-2.2421,-2.2418,-2.2436,-2.2434,-2.2422,-2.2465,-2.2465,-2.2465,-2.2465,0,-2.1135,-2.1195,-2.134,-2.139,-2.1461,-2.1564,-2.163,-2.1703,-2.1795,-2.186,-2.1943,-2.2002,-2.2119,-2.2193,-2.2264,-2.2343,-2.2366,-2.2408,-2.2427,-2.2401,-2.2396,-2.2434,-2.2436,-2.2466,-2.2466,-2.2466,-2.2466,0,-2.1076,-2.1176,-2.1272,-2.1409,-2.1445,-2.1491,-2.1609,-2.1661,-2.1737,-2.1819,-2.1844,-2.1963,-2.2054,-2.2152,-2.2275,-2.2324,-2.2399,-2.2425,-2.2364,-2.2375,-2.2384,-2.2381,-2.2397,-2.2404,-2.244,-2.244,-2.244,0,-2.107,-2.1119,-2.1262,-2.1313,-2.1376,-2.1456,-2.1517,-2.162,-2.1679,-2.1801,-2.1838,-2.1935,-2.2019,-2.216,-2.2257,-2.2351,-2.2381,-2.2379,-2.2395,-2.2369,-2.2381,-2.2377,-2.2383,-2.2374,-2.2373,-2.2373,-2.2372,0,-2.1048,-2.1095,-2.1179,-2.128,-2.135,-2.1435,-2.1522,-2.1558,-2.1679,-2.1741,-2.1836,-2.19,-2.2027,-2.2123,-2.223,-2.2296,-2.2354,-2.2366,-2.2375,-2.235,-2.2313,-2.2333,-2.2351,-2.2366,-2.2366,-2.2367,-2.2367,-2.2367,-2.1016,-2.1064,-2.1173,-2.1264,-2.1341,-2.1421,-2.1477,-2.156,-2.1642,-2.1754,-2.181,-2.1904,-2.2007,-2.2157,-2.2222,-2.2297,-2.2315,-2.2326,-2.233,-2.2331,-2.2325,-2.23,-2.2316,-2.2317,-2.2317,-2.2317,-2.2318,0,-2.0998,-2.1073,-2.1156,-2.1277,-2.1348,-2.1398,-2.1497,-2.1553,-2.1636,-2.1728,-2.1809,-2.1918,-2.2011,-2.2115,-2.2215,-2.2255,-2.2284,-2.2277,-2.2276,-2.229,-2.2303,-2.2286,-2.2252,-2.2252,-2.2252,-2.2252,-2.2252,-2.2252,-2.0998,-2.1082,-2.1142,-2.1264,-2.1339,-2.1433,-2.1486,-2.156,-2.1634,-2.1752,-2.1831,-2.1899,-2.1996,-2.2104,-2.2191,-2.222,-2.2252,-2.2238,-2.2274,-2.2284,-2.2289,-2.2294,-2.2279,-2.2244,-2.2244,-2.2256,-2.2256,-2.2256]},{"header":{"parameterUnit":"m.s-1","parameterCategory":1,"la1":30.2991,"la2":30.254,"lo1":-89.0895,"lo2":-89.0444,"dy":0.0017,"dx":0.0017,"nx":28,"ny":28,"refTime":"2025-08-28T03:00:00:Z","depth":0,"parameterNumber":3,"parameterNumberName":"V-component_of_WINDS"},"data":[0,0,0,0,0,0,0,0,0,0,0,0,0,0,0,0,0,0,0,0,0,0,0,0,0,0,0,0,0,0,0,0,0,0,0,0,0,0,0,0,0,0,0,0,0,0,0,0,0,0,0,0,0,0,0,0,0,0,0.6584,0.6581,0,0.6277,0.6274,0.627,0.6037,0.6035,0.6033,0.6031,0.5711,0.5705,0.5699,0,0,0,0,0,0,0,0,0,0,0,0,0,0.6963,0.6957,0.6584,0.658,0.6577,0.6278,0.6274,0.6269,0.6038,0.6035,0.6032,0.603,0.5713,0.5706,0.5698,0,0,0,0,0,0,0,0,0,0,0,0,0,0.6742,0.6955,0.6585,0.6425,0.6408,0.6279,0.6273,0.6268,0.6038,0.6035,0.6032,0.6029,0.5716,0.5707,0.5697,0.5701,0,0,0.5667,0.5663,0,0,0,0,0,0,0,0,0.6754,0.6728,0.6452,0.6436,0.6416,0.6192,0.629,0.6078,0.6039,0.6178,0.6031,0.6027,0.5874,0.5851,0.58,0.5686,0.5672,0.5666,0.566,0.5656,0.5653,0,0,0,0,0,0,0,0.677,0.674,0.6462,0.6449,0.6426,0.6366,0.6331,0.6248,0.6047,0.6166,0.6148,0.6115,0.5863,0.581,0.5791,0.5667,0.5666,0.5658,0.5652,0.5648,0.5538,0.5541,0,0,0,0,0,0,0.6811,0.6754,0.6472,0.6453,0.6581,0.6362,0.6323,0.6267,0.6048,0.6011,0.6118,0.6106,0.5828,0.5802,0.5779,0.5767,0.5656,0.5647,0.5641,0.5535,0.5539,0.5542,0,0,0,0,0,0,0.682,0.6788,0.6485,0.6599,0.6556,0.6359,0.6298,0.6263,0.621,0.6012,0.5974,0.6102,0.5825,0.5792,0.5722,0.5753,0.5642,0.5634,0.5532,0.5536,0.554,0.5746,0,0,0,0,0,0,0.6832,0.6793,0.6794,0.6601,0.655,0.6435,0.63,0.6259,0.6194,0.6174,0.5986,0.5952,0.582,0.5738,0.5712,0.5737,0.5626,0.5528,0.5534,0.5539,0.5735,0.5757,0.5775,0,0,0,0,0,0.6846,0.6863,0.6795,0.6762,0.6548,0.6438,0.6409,0.6258,0.6198,0.6196,0.6068,0.5958,0.5754,0.5732,0.5701,0.5725,0.5525,0.5532,0.5539,0.5726,0.5753,0.5775,0,0,0,0,0,0,0.7063,0.6835,0.6757,0.6712,0.6596,0.6399,0.6392,0.6291,0.6188,0.6174,0.5989,0.5948,0.5897,0.5803,0.5783,0.5715,0.5625,0.5626,0.5779,0.5802,0.5822,0.5845,0.5618,0,0,0,0,0,0.7106,0.7038,0.6841,0.682,0.6766,0.659,0.6536,0.643,0.6302,0.6251,0.6118,0.5997,0.5905,0.5848,0.5753,0.5721,0.5675,0.5721,0.5741,0.5759,0.5761,0.5736,0.5753,0.5564,0.5564,0.5564,0,0,0.7193,0.706,0.7028,0.686,0.6758,0.6689,0.655,0.6483,0.643,0.624,0.6165,0.6065,0.5916,0.5865,0.5836,0.5785,0.5804,0.5767,0.5782,0.5775,0.5745,0.5763,0.5779,0.5568,0.5567,0.5567,0,0,0.7316,0.721,0.718,0.7081,0.6929,0.6811,0.6805,0.6622,0.6548,0.6471,0.6327,0.626,0.6106,0.6006,0.5935,0.6021,0.5915,0.5995,0.6098,0.6076,0.6091,0.6103,0.6133,0.6146,0.5998,0.5999,0.5999,0,0.7443,0.7336,0.7178,0.7119,0.7049,0.6877,0.6844,0.6755,0.6579,0.6534,0.648,0.6283,0.6171,0.6093,0.6114,0.6063,0.6048,0.6015,0.6102,0.6113,0.6122,0.6148,0.616,0.6009,0.6008,0.6007,0.6006,0,0.7499,0.7427,0.7421,0.7258,0.7187,0.7142,0.6975,0.6921,0.6822,0.671,0.6632,0.6492,0.6365,0.6338,0.624,0.6246,0.622,0.6137,0.6042,0.6153,0.6175,0.6183,0.6025,0.6021,0.6018,0.6015,0,0,0.775,0.75,0.75,0.7424,0.7243,0.7183,0.713,0.7007,0.6965,0.6849,0.6798,0.6672,0.6594,0.6514,0.6402,0.6383,0.6459,0.6301,0.6295,0.6335,0.6456,0.652,0.6534,0.6388,0.6389,0.639,0.6468,0,0.7844,0.7741,0.7597,0.7541,0.7471,0.7306,0.7259,0.7143,0.7037,0.696,0.6841,0.6755,0.6659,0.6609,0.6583,0.6456,0.6481,0.6448,0.6337,0.6335,0.6379,0.6545,0.6611,0.6692,0.6476,0.6477,0.6478,0,0.794,0.7836,0.7775,0.7599,0.7564,0.7526,0.7401,0.7331,0.7194,0.7118,0.703,0.6909,0.6842,0.6758,0.6662,0.6644,0.6589,0.652,0.6519,0.6502,0.6413,0.6532,0.6714,0.6726,0.649,0.6489,0.6488,0,0.8129,0.7972,0.7915,0.7854,0.7649,0.7625,0.7538,0.7398,0.7334,0.7224,0.718,0.7064,0.7001,0.6913,0.6763,0.6716,0.6683,0.6587,0.6616,0.6621,0.6616,0.6618,0.6792,0.6584,0.6584,0.6584,0.6583,0,0.8249,0.8217,0.7997,0.7961,0.792,0.7754,0.7717,0.7614,0.7492,0.7432,0.7281,0.7228,0.7035,0.6958,0.6841,0.6779,0.6751,0.6686,0.6655,0.6699,0.6708,0.666,0.6651,0.6586,0.6586,0.6585,0.6585,0,0.8451,0.8303,0.8229,0.8041,0.7993,0.7971,0.7809,0.7767,0.7653,0.7579,0.7552,0.7371,0.7273,0.7116,0.6971,0.6892,0.685,0.6799,0.6898,0.6879,0.6917,0.6915,0.7065,0.7076,0.6864,0.6866,0.6868,0,0.8538,0.851,0.8319,0.827,0.8189,0.811,0.8044,0.7878,0.7815,0.7658,0.7635,0.7526,0.7429,0.728,0.7135,0.7023,0.6967,0.7027,0.6949,0.6994,0.6967,0.697,0.6966,0.7046,0.7049,0.7051,0.7053,0,0.8706,0.8634,0.8545,0.8431,0.8357,0.8259,0.8153,0.812,0.793,0.7867,0.7766,0.7692,0.7545,0.7438,0.7306,0.7212,0.7101,0.708,0.708,0.7124,0.7182,0.7151,0.6946,0.7077,0.7074,0.7073,0.7071,0.707,0.8851,0.8818,0.868,0.8586,0.8489,0.8394,0.8346,0.8226,0.814,0.8008,0.7915,0.7821,0.7683,0.7494,0.7408,0.733,0.728,0.7282,0.7282,0.7284,0.7301,0.7196,0.7305,0.7304,0.7303,0.7302,0.7302,0,0.901,0.8913,0.8829,0.8687,0.8613,0.8517,0.8394,0.8338,0.8257,0.814,0.8049,0.7932,0.7828,0.7675,0.7558,0.7525,0.7471,0.7499,0.75,0.748,0.7352,0.7363,0.7545,0.7545,0.7545,0.7545,0.7545,0.7545,0.9085,0.9024,0.8936,0.8826,0.8727,0.8635,0.8573,0.8484,0.8389,0.8267,0.818,0.8082,0.7949,0.7821,0.7721,0.7678,0.7641,0.7687,0.7628,0.7511,0.7489,0.7468,0.7477,0.768,0.768,0.7762,0.7763,0.7764]}]]